Regional Weather Roundup
Issued by NWS Grand Forks, ND

Home | Current Version | Previous Version | Text Only | Print | Product List | Glossary On
Versions: 1 2 3 4 5 6 7 8 9 10 11 12 13 14 15 16 17 18 19 20 21 22 23 24 25 26 27 28 29 30 31 32 33 34 35 36 37 38 39 40 41 42 43 44 45 46 47 48 49 50
000
ASUS43 KFGF 200131
RWRFGF
PRAIRIE TO PINES  WEATHER ROUNDUP
NATIONAL WEATHER SERVICE EASTERN NORTH DAKOTA/GRAND FORKS ND
800 PM CDT SAT JUN 19 2021

 **SATELLITE DATA USED TO AUGMENT SKY COVER AT AUTOMATED STATIONS**
 *****  WEATHER ACROSS EASTERN NORTH DAKOTA  *****

CITY           SKY/WX    TMP DP  RH WIND       PRES   REMARKS
GRAND FORKS    PTSUNNY   78  45  30 W7        29.70R
GRAND FRKS AFB FAIR      77  47  34 W7        29.70S
GRAND FRKS NWS   N/A     78  50  37 NW6       29.65F
DEVILS LAKE    FAIR      75  49  39 N9        29.73F
FARGO          FAIR      79  47  32 SW7       29.70F
WAHPETON ARPT    N/A    N/A N/A N/A MISG        N/A
$$

 ***** WEATHER ACROSS CENTRAL AND WESTERN NORTH DAKOTA  *****

CITY           SKY/WX    TMP DP  RH WIND       PRES   REMARKS
BISMARCK       FAIR      82  47  29 SE9       29.69F
MINOT          PTSUNNY   74  47  38 N12       29.69F
JAMESTOWN      FAIR      80  45  28 VRB3      29.71F
MINOT AFB      FAIR      73  32  22 NE13      29.69F
GARRISON         N/A     79  49  34 SE8       29.67F
WILLISTON      NOT AVBL
DICKINSON      LGT RAIN  66  56  70 SE17G28   29.65F
HETTINGER      FAIR      77  51  40 E17G28    29.66F
$$

 *****  OTHER AIRPORT OBSERVATIONS IN OUR AREA  *****

CITY           SKY/WX    TMP DP  RH WIND       PRES   REMARKS
WALHALLA       FAIR      72  72 100 NW5       29.71S
GRAFTON AIRPOR FAIR      73  50  43 N9        29.72S
VALLEY CITY AR FAIR      77  50  38 CALM      29.73F
CANDO          FAIR      73  48  40 N7        29.74F
CAVALIER APRT  FAIR      72  50  46 NW3       29.70F
GWINNER        PTCLDY    75  52  43 NE5       29.72F
SHEYENNE NWR     N/A     79  51  36 CALM      29.95S
ROLLA          FAIR      72  48  43 NW5       29.75S
 ***** THE ABOVE OBSERVATIONS ARE NON NWS ARE NOT QUALITY
       CONTROLLED AND MAY MIS-REPORT RAIN FOR SNOW...
$$

  *****  WEATHER ACROSS NORTHERN MINNESOTA  *****

CITY           SKY/WX    TMP DP  RH WIND       PRES   REMARKS
FLAG ISLAND    CLOUDY    66  52  59 CALM      29.70F
WARROAD        FAIR      68  57  68 E7        29.71F
ROSEAU         FAIR      70  55  60 NE5       29.71S
HALLOCK        FAIR      73  52  46 W6        29.70S
THF RVR FALLS  PTSUNNY   75  49  39 W7        29.72S
BAUDETTE       CLOUDY    67  53  61 SE7       29.73F
WASKISH        CLOUDY    68  52  56 CALM      29.74S
CROOKSTON      FAIR      73  50  43 NW6       29.71S
STEPHEN NDAWN    N/A     73  52  46 VRB5        N/A
GREENBUSH NDAW   N/A     72  50  46 VRB6        N/A
$$
  *****  WEATHER ACROSS CENTRAL AND WEST MINNESOTA  *****

CITY           SKY/WX    TMP DP  RH WIND       PRES   REMARKS
FOSSTON        FAIR      70  48  46 S7        29.73S
BEMIDJI        PTSUNNY   69  50  49 S6        29.75F
PARK RAPIDS    FAIR      73  47  39 SW7       29.77F
ELBOW LAKE     NOT AVBL
WADENA         FAIR      73  50  43 CALM      29.77F
DETROIT LAKES  FAIR      73  50  43 S8        29.75S
MOORHEAD       FAIR      81  37  21 CALM      29.71F
FERGUS FALLS   FAIR      73  54  49 S6        29.72F
MORRIS MN      FAIR      75  43  31 CALM      29.78S
STAPLES        FAIR      73  46  38 W7        29.78S
$$
  *****  WEATHER ELSEWHERE ACROSS MINNESOTA  *****

CITY           SKY/WX    TMP DP  RH WIND       PRES   REMARKS
DULUTH         FAIR      67  49  52 CALM      29.78S
INTRNTL FALLS  CLOUDY    65  49  56 CALM      29.74F
ELY            FAIR      61  48  63 W6        29.79R
CLOQUET        FAIR      63  48  59 CALM      29.79R
WHEATON        FAIR      75  52  43 E5        29.76S
BRAINERD       FAIR      74  48  39 N3        29.78S
HIBBING        FAIR      63  49  60 CALM      29.79R
ALEXANDRIA     FAIR      74  49  41 W3        29.80F
SAINT CLOUD    FAIR      76  47  35 W6        29.77S
MINNEAPOLIS    FAIR      77  48  35 NW9       29.78R
$$

  *****  WEATHER ACROSS SOUTH DAKOTA  *****

CITY           SKY/WX    TMP DP  RH WIND       PRES   REMARKS
SIOUX FALLS    PTSUNNY   77  53  43 CALM      29.78F
BROOKINGS      PTSUNNY   76  48  37 SE5       29.79F
WATERTOWN      PTSUNNY   76  50  40 CALM      29.78F
HURON          FAIR      77  48  35 S9        29.74F
SISSETON         N/A     79  48  33 CALM      29.74F
ABERDEEN       CLOUDY    80  47  31 S7        29.73F
MITCHELL       FAIR      77  54  44 E9        29.75F
PIERRE         FAIR      79  49  34 SE18G26   29.67F
MOBRIDGE       FAIR      83  47  28 SE16      29.66F
RAPID CITY     PTSUNNY   83  55  38 E6        29.66R THUNDER
$$

  *****  SOME WEATHER IN NEARBY STATES *****

CITY           SKY/WX    TMP DP  RH WIND       PRES   REMARKS
GLASGOW MT     FAIR      73  50  44 NE23      29.72R
GREAT FALLS MT LGT RAIN  61  49  64 NE13      29.92R
CHEYENNE WY    FAIR      77  49  37 S14       29.90F
SCOTTSBLUFF NE FAIR      79  56  45 SE23G31   29.75F
OMAHA NE       MOCLDY    85  57  38 NE8       29.75F
DES MOINES IA  MOCLDY    86  50  28 NW8       29.75R
DAVENPORT IA   FAIR      82  58  43 N5        29.74R
CHICAGO IL     FAIR      75  61  61 NE14      29.73R
EAU CLAIRE WI  FAIR      75  50  41 W6        29.76R
LA CROSSE WI   FAIR      79  55  43 NW9       29.75R
$$

  *****  SOME NATIONAL WEATHER *****

CITY           SKY/WX    TMP DP  RH WIND       PRES   REMARKS
LA GUARDIA NY  LGT RAIN  72  62  71 CALM      29.80R
RALEIGH NC     CLOUDY    82  69  64 SW13      29.90R
ATLANTA GA     CLOUDY    70  68  93 E14G25    29.92F
NEW ORLEANS LA FAIR      85  74  69 SW9       29.87R HX  92
OKLAHOMA CITY  FAIR      85  64  49 S12       29.78S
ALBUQUERQUE NM PTSUNNY   96  37  12 SW14      29.88S HX  91
SALT LAKE CITY FAIR      97  31   9 NW9       29.80F HX  91
LOS ANGELES CA PTSUNNY   64  59  83 W12       29.77S
BOISE ID       FAIR      94  32  11 N15       29.79F
SEATTLE WA     FAIR      75  50  41 W7        30.03F
$$

*** WEATHER ACROSS MANITOBA...SASKATCHEWAN AND ONTARIO ***
                ***ONTARIO***

CITY           SKY/WX    TMP DP  RH WIND       PRES   REMARKS
GERALDTON      MOCLDY    59  52  77 SW2       29.75F
THUNDER BAY    PTCLDY    64  52  63 VRB2      29.75F
SIOUX LOOKOUT  PTSUNNY   61  50  67 S6        29.72F
TORONTO        PTCLDY    73  55  53 SW13      29.73R
BIG TROUT LK   SUNNY     61  50  67 SW5       29.60F
PICKLE LAKE    MOCLDY    59  48  67 S8        29.69F
DRYDEN         SUNNY     63  46  55 SW6       29.72F
KENORA         PTSUNNY   63  52  67 SW6       29.72F
$$
                *** MANITOBA***

CITY           SKY/WX    TMP DP  RH WIND       PRES   REMARKS
BRANDON        CLOUDY    64  55  72 W10       29.72S
DAUPHIN        PTSUNNY   63  55  77 W9G18     29.66F
ISLAND LAKE    NOT AVBL
PILOT MOUND      N/A     70  50  49 NW5         N/A
THE PAS        MOSUNNY   57  52  82 N7        29.65R THUNDER
THOMPSON       CLOUDY    50  48  93 NE8       29.63F
WINNIPEG       PTSUNNY   70  50  49 NW6       29.68S
LYNN LAKE      PTSUNNY   54  36  50 N15G26    29.71R
CHURCHILL      PTSUNNY   46  36  66 N8        29.67R
GILLAM         LGT RAIN  52  43  71 NE15G21   29.63R
$$
                ***SASKATCHEWAN***

CITY           SKY/WX    TMP DP  RH WIND       PRES   REMARKS
ESTEVAN        PTSUNNY   70  50  49 N20G28    29.73R
KINDERSLEY     MOSUNNY   64  50  59 N12G17    29.84R
LLOYDMINSTER   MOSUNNY   66  45  45 N13G18    29.83S
PRINCE ALBERT  MOSUNNY   68  43  40 N12G18    29.74S
REGINA         PTSUNNY   64  54  68 NW10      29.79F
YORKTON        CLOUDY    63  50  63 W12G20    29.72S
N. BATTLEFORD  SUNNY     66  52  59 NW14G21   29.81S
LA RONGE       PTSUNNY   59  50  72 N15G21    29.75R
SASKATOON      MOSUNNY   66  50  55 NW14      29.76S
SWIFT CURRENT  SUNNY     66  46  48 NW15      29.82F
$$
NOTE: THESE ARE AUTOMATED STATIONS WITH LIMITED QUALITY CONTROL
      "FAIR" INDICATES FEW OR NO CLOUDS BELOW 12,000 FEET WITH NO
      SIGNIFICANT WEATHER AND/OR OBSTRUCTIONS TO VISIBILITY.
      SKY/WX - SKY CONDITION AND SIGNIFICANT WEATHER.
      TMP - AIR TEMPERATURE.    DP   - DEWPOINT TEMPERATURE.
      RH  - RELATIVE HUMIDITY.  PRES - PRESSURE.
      HX  - HEAT INDEX.         WCI  - WIND CHILL INDEX.
$



USA.gov is the U.S. government's official web portal to all federal, state and local government web resources and services.